| time (UTC) | temp F | wind direction | speed MPH | gust MPH | rain 1hr in | rain 24hr in | rain mn in | humidity % | barometer mb |
| 20260506220404 | 56 | 0 | 2.0 | 6.0 | 0.00 | 0.00 | 0.00 | 52 | 1010.2 |
| 20260506214404 | 59 | 217 | 3.0 | 12.0 | 0.00 | 0.00 | 0.00 | 39 | 1009.2 |
| 20260506213904 | 58 | 175 | 3.0 | 12.0 | 0.00 | 0.00 | 0.00 | 39 | 1009.1 |
| 20260506213404 | 58 | 204 | 5.0 | 12.0 | 0.00 | 0.00 | 0.00 | 40 | 1009.1 |
| 20260506212904 | 58 | 183 | 5.0 | 12.0 | 0.00 | 0.00 | 0.00 | 38 | 1009.1 |
| 20260506211404 | 59 | 182 | 6.0 | 14.0 | 0.00 | 0.00 | 0.00 | 38 | 1008.8 |
| 20260506205904 | 58 | 179 | 2.0 | 9.0 | 0.00 | 0.00 | 0.00 | 40 | 1008.9 |
| 20260506204904 | 58 | 200 | 2.0 | 13.0 | 0.00 | 0.00 | 0.00 | 40 | 1009.2 |
| 20260506204404 | 58 | 181 | 4.0 | 13.0 | 0.00 | 0.00 | 0.00 | 41 | 1008.9 |
| 20260506203904 | 58 | 200 | 2.0 | 8.0 | 0.00 | 0.00 | 0.00 | 42 | 1009.2 |
| 20260506202404 | 57 | 192 | 1.0 | 6.0 | 0.00 | 0.00 | 0.00 | 43 | 1009.3 |
| 20260506201904 | 57 | 320 | 1.0 | 8.0 | 0.00 | 0.00 | 0.00 | 50 | 1009.4 |
| 20260506201404 | 57 | 203 | 2.0 | 9.0 | 0.00 | 0.00 | 0.00 | 43 | 1009.5 |
| 20260506195904 | 57 | 193 | 6.0 | 12.0 | 0.00 | 0.00 | 0.00 | 41 | 1009.5 |
| 20260506194904 | 57 | 205 | 5.0 | 13.0 | 0.00 | 0.00 | 0.00 | 42 | 1009.4 |
| 20260506193905 | 58 | 231 | 5.0 | 13.0 | 0.00 | 0.00 | 0.00 | 41 | 1009.5 |
| 20260506193404 | 57 | 186 | 5.0 | 12.0 | 0.00 | 0.00 | 0.00 | 40 | 1009.4 |
| 20260506191904 | 56 | 205 | 3.0 | 10.0 | 0.00 | 0.00 | 0.00 | 45 | 1009.4 |
| 20260506185404 | 55 | 0 | 3.0 | 12.0 | 0.00 | 0.00 | 0.00 | 51 | 1009.6 |
| 20260506184904 | 55 | 0 | 3.0 | 12.0 | 0.00 | 0.00 | 0.00 | 51 | 1009.7 |
| 20260506183905 | 56 | 208 | 4.0 | 12.0 | 0.00 | 0.00 | 0.00 | 47 | 1009.7 |
| 20260506175906 | 55 | 211 | 6.0 | 13.0 | 0.00 | 0.00 | 0.00 | 53 | 1010.0 |
| 20260506173904 | 53 | 183 | 5.0 | 13.0 | 0.00 | 0.00 | 0.00 | 56 | 1010.1 |
| 20260506173404 | 52 | 219 | 3.0 | 13.0 | 0.00 | 0.00 | 0.00 | 59 | 1010.1 |
| 20260506172404 | 52 | 161 | 3.0 | 13.0 | 0.00 | 0.00 | 0.00 | 58 | 1010.1 |
| 20260506171903 | 52 | 106 | 5.0 | 13.0 | 0.00 | 0.00 | 0.00 | 57 | 1010.1 |
| 20260506170904 | 52 | 245 | 3.0 | 10.0 | 0.00 | 0.00 | 0.00 | 59 | 1010.2 |
| 20260506165404 | 51 | 143 | 5.0 | 9.0 | 0.00 | 0.00 | 0.00 | 61 | 1010.0 |
| 20260506163904 | 50 | 139 | 5.0 | 12.0 | 0.00 | 0.00 | 0.00 | 61 | 1009.8 |
| 20260506162904 | 49 | 130 | 4.0 | 12.0 | 0.00 | 0.00 | 0.00 | 66 | 1009.9 |
| 20260506161404 | 48 | 0 | 2.0 | 7.0 | 0.00 | 0.00 | 0.00 | 68 | 1009.9 |
| 20260506160904 | 48 | 0 | 2.0 | 7.0 | 0.00 | 0.00 | 0.00 | 67 | 1009.9 |
| 20260506154904 | 47 | 133 | 2.0 | 10.0 | 0.00 | 0.00 | 0.00 | 69 | 1010.1 |
| 20260506154404 | 47 | 206 | 2.0 | 8.0 | 0.00 | 0.00 | 0.00 | 69 | 1010.1 |
| 20260506153904 | 46 | 0 | 3.0 | 8.0 | 0.00 | 0.00 | 0.00 | 70 | 1010.1 |
| 20260506152405 | 47 | 167 | 3.0 | 7.0 | 0.00 | 0.00 | 0.00 | 70 | 1010.2 |
| 20260506150404 | 45 | 0 | 3.0 | 9.0 | 0.00 | 0.00 | 0.00 | 75 | 1010.0 |
| 20260506142404 | 42 | 0 | 2.0 | 9.0 | 0.00 | 0.00 | 0.00 | 81 | 1010.0 |
| 20260506141904 | 41 | 148 | 3.0 | 9.0 | 0.00 | 0.00 | 0.00 | 80 | 1010.0 |
| 20260506141404 | 41 | 136 | 2.0 | 7.0 | 0.00 | 0.00 | 0.00 | 81 | 1010.1 |
| 20260506135904 | 41 | 106 | 2.0 | 5.0 | 0.00 | 0.00 | 0.00 | 82 | 1010.2 |
| 20260506135404 | 41 | 108 | 1.0 | 5.0 | 0.00 | 0.00 | 0.00 | 83 | 1010.1 |
| 20260506133905 | 40 | 146 | 0.0 | 3.0 | 0.00 | 0.00 | 0.00 | 83 | 1010.0 |
| 20260506133404 | 40 | 146 | 1.0 | 5.0 | 0.00 | 0.00 | 0.00 | 84 | 1009.9 |
| 20260506132904 | 39 | 146 | 1.0 | 5.0 | 0.00 | 0.00 | 0.00 | 84 | 1009.8 |
| 20260506131403 | 39 | 142 | 1.0 | 3.0 | 0.00 | 0.00 | 0.00 | 85 | 1009.5 |
| 20260506125903 | 38 | 141 | 2.0 | 5.0 | 0.00 | 0.00 | 0.00 | 85 | 1009.4 |
| 20260506125404 | 38 | 143 | 3.0 | 5.0 | 0.00 | 0.00 | 0.00 | 85 | 1009.4 |
| 20260506124403 | 37 | 153 | 2.0 | 5.0 | 0.00 | 0.00 | 0.00 | 86 | 1009.2 |
| 20260506123904 | 37 | 138 | 2.0 | 5.0 | 0.00 | 0.00 | 0.00 | 86 | 1008.9 |
| 20260506123405 | 37 | 139 | 1.0 | 6.0 | 0.00 | 0.00 | 0.00 | 86 | 1009.1 |
| 20260506122404 | 37 | 144 | 2.0 | 7.0 | 0.00 | 0.00 | 0.00 | 86 | 1009.1 |
| 20260506120904 | 36 | 105 | 0.0 | 1.0 | 0.00 | 0.00 | 0.00 | 86 | 1009.0 |
| 20260506120404 | 36 | 105 | 0.0 | 1.0 | 0.00 | 0.00 | 0.00 | 86 | 1009.1 |
| 20260506114404 | 36 | 138 | 2.0 | 5.0 | 0.00 | 0.00 | 0.00 | 86 | 1008.7 |
| 20260506112904 | 36 | 154 | 1.0 | 3.0 | 0.00 | 0.00 | 0.00 | 86 | 1008.5 |
| 20260506105903 | 35 | 138 | 2.0 | 7.0 | 0.00 | 0.00 | 0.00 | 87 | 1007.9 |
| 20260506105404 | 36 | 142 | 5.0 | 6.0 | 0.00 | 0.00 | 0.00 | 87 | 1007.9 |
| 20260506104904 | 36 | 141 | 1.0 | 3.0 | 0.00 | 0.00 | 0.00 | 86 | 1008.2 |
| 20260506104404 | 36 | 141 | 0.0 | 2.0 | 0.00 | 0.00 | 0.00 | 87 | 1008.2 |
| 20260506103904 | 36 | 141 | 1.0 | 2.0 | 0.00 | 0.00 | 0.00 | 87 | 1008.1 |
| 20260506102404 | 36 | 141 | 1.0 | 2.0 | 0.00 | 0.00 | 0.00 | 86 | 1007.9 |
| 20260506101904 | 36 | 141 | 0.0 | 0.0 | 0.00 | 0.00 | 0.00 | 86 | 1007.9 |
| 20260506101404 | 36 | 141 | 0.0 | 1.0 | 0.00 | 0.00 | 0.00 | 86 | 1007.9 |
| 20260506100905 | 37 | 141 | 0.0 | 1.0 | 0.00 | 0.00 | 0.00 | 86 | 1008.0 |
| 20260506100404 | 37 | 141 | 1.0 | 2.0 | 0.00 | 0.00 | 0.00 | 86 | 1008.0 |
| 20260506095403 | 37 | 141 | 0.0 | 1.0 | 0.00 | 0.00 | 0.00 | 86 | 1008.0 |
| 20260506094904 | 37 | 141 | 0.0 | 1.0 | 0.00 | 0.00 | 0.00 | 86 | 1008.0 |
| 20260506094403 | 37 | 141 | 0.0 | 2.0 | 0.00 | 0.00 | 0.00 | 86 | 1007.9 |
| 20260506093903 | 37 | 141 | 1.0 | 3.0 | 0.00 | 0.00 | 0.00 | 86 | 1008.0 |
| 20260506093404 | 37 | 141 | 0.0 | 3.0 | 0.00 | 0.00 | 0.00 | 86 | 1008.0 |
| 20260506092404 | 37 | 140 | 2.0 | 3.0 | 0.00 | 0.00 | 0.00 | 86 | 1007.9 |
| 20260506091403 | 37 | 148 | 3.0 | 5.0 | 0.00 | 0.00 | 0.00 | 86 | 1007.8 |
| 20260506090904 | 37 | 153 | 2.0 | 3.0 | 0.00 | 0.00 | 0.00 | 86 | 1007.8 |
| 20260506085904 | 38 | 146 | 1.0 | 3.0 | 0.00 | 0.00 | 0.00 | 86 | 1007.8 |
| 20260506081904 | 39 | 144 | 1.0 | 3.0 | 0.00 | 0.00 | 0.00 | 86 | 1007.2 |
| 20260506081404 | 39 | 144 | 2.0 | 3.0 | 0.00 | 0.00 | 0.00 | 86 | 1007.2 |
| 20260506080904 | 39 | 146 | 2.0 | 3.0 | 0.00 | 0.00 | 0.00 | 86 | 1007.2 |
| 20260506073404 | 40 | 142 | 2.0 | 3.0 | 0.00 | 0.00 | 0.00 | 85 | 1007.4 |
| 20260506072404 | 40 | 155 | 2.0 | 3.0 | 0.00 | 0.00 | 0.00 | 85 | 1007.3 |
| 20260506071904 | 40 | 148 | 1.0 | 3.0 | 0.00 | 0.00 | 0.00 | 85 | 1007.1 |
| 20260506070404 | 41 | 148 | 2.0 | 3.0 | 0.00 | 0.00 | 0.00 | 85 | 1007.0 |
| 20260506061404 | 42 | 145 | 2.0 | 3.0 | 0.00 | 0.00 | 0.00 | 85 | 1006.5 |
| 20260506051403 | 43 | 182 | 1.0 | 5.0 | 0.00 | 0.00 | 0.00 | 84 | 1007.4 |
| 20260506050904 | 43 | 288 | 1.0 | 5.0 | 0.00 | 0.00 | 0.00 | 84 | 1007.4 |
| 20260506050404 | 43 | 247 | 2.0 | 7.0 | 0.00 | 0.00 | 0.00 | 85 | 1007.4 |
| 20260506044404 | 43 | 207 | 0.0 | 3.0 | 0.00 | 0.00 | 0.00 | 85 | 1006.9 |
| 20260506043404 | 43 | 105 | 0.0 | 3.0 | 0.00 | 0.00 | 0.00 | 85 | 1006.0 |
| 20260506042904 | 43 | 105 | 1.0 | 3.0 | 0.00 | 0.00 | 0.00 | 85 | 1005.8 |
| 20260506042404 | 43 | 104 | 1.0 | 3.0 | 0.00 | 0.00 | 0.00 | 85 | 1005.5 |
| 20260506041903 | 42 | 52 | 0.0 | 2.0 | 0.00 | 0.00 | 0.00 | 85 | 1005.5 |
| 20260506041404 | 42 | 48 | 0.0 | 0.0 | 0.00 | 0.00 | 0.00 | 85 | 1005.5 |
| 20260506040904 | 42 | 48 | 0.0 | 2.0 | 0.00 | 0.00 | 0.00 | 84 | 1005.4 |
| 20260506040404 | 42 | 48 | 0.0 | 3.0 | 0.00 | 0.00 | 0.00 | 85 | 1005.6 |
| 20260506035904 | 42 | 46 | 1.0 | 9.0 | 0.00 | 0.00 | 0.00 | 84 | 1005.5 |
| 20260506034904 | 43 | 48 | 2.0 | 5.0 | 0.00 | 0.00 | 0.00 | 84 | 1005.7 |
| 20260506032906 | 43 | 289 | 0.0 | 3.0 | 0.00 | 0.00 | 0.00 | 84 | 1006.1 |
| 20260506030404 | 44 | 187 | 0.0 | 9.0 | 0.00 | 0.00 | 0.00 | 82 | 1005.5 |
| 20260506025903 | 44 | 198 | 1.0 | 17.0 | 0.00 | 0.00 | 0.00 | 81 | 1005.6 |
| 20260506025404 | 45 | 209 | 5.0 | 17.0 | 0.00 | 0.00 | 0.00 | 81 | 1005.7 |
| 20260506024405 | 46 | 68 | 0.0 | 0.0 | 0.00 | 0.00 | 0.00 | 83 | 1004.1 |
| 20260506023904 | 46 | 68 | 0.0 | 0.0 | 0.00 | 0.00 | 0.00 | 82 | 1003.6 |
| 20260506023403 | 46 | 68 | 0.0 | 3.0 | 0.00 | 0.00 | 0.00 | 82 | 1003.4 |
| 20260506022904 | 46 | 68 | 0.0 | 3.0 | 0.00 | 0.00 | 0.00 | 82 | 1003.3 |
| 20260506022404 | 46 | 68 | 1.0 | 3.0 | 0.00 | 0.00 | 0.00 | 82 | 1003.2 |
| 20260506021904 | 46 | 68 | 1.0 | 3.0 | 0.00 | 0.00 | 0.00 | 81 | 1003.3 |
| 20260506021404 | 46 | 70 | 1.0 | 3.0 | 0.00 | 0.00 | 0.00 | 80 | 1003.3 |
| 20260506020403 | 47 | 71 | 0.0 | 1.0 | 0.00 | 0.00 | 0.00 | 78 | 1003.3 |
| 20260506015404 | 48 | 71 | 1.0 | 7.0 | 0.00 | 0.00 | 0.00 | 75 | 1002.8 |
| 20260506014403 | 49 | 210 | 5.0 | 10.0 | 0.00 | 0.00 | 0.00 | 69 | 1003.0 |
| 20260506013404 | 52 | 323 | 2.0 | 3.0 | 0.00 | 0.00 | 0.00 | 58 | 1002.8 |
| 20260506012903 | 52 | 317 | 1.0 | 3.0 | 0.00 | 0.00 | 0.00 | 57 | 1002.3 |
| 20260506012404 | 53 | 316 | 2.0 | 5.0 | 0.00 | 0.00 | 0.00 | 55 | 1001.8 |
| 20260506011904 | 54 | 346 | 2.0 | 6.0 | 0.00 | 0.00 | 0.00 | 55 | 1001.6 |
| 20260506011404 | 55 | 250 | 2.0 | 6.0 | 0.00 | 0.00 | 0.00 | 53 | 1001.3 |
| 20260506010404 | 56 | 273 | 3.0 | 6.0 | 0.00 | 0.00 | 0.00 | 47 | 1001.2 |
| 20260506004904 | 57 | 311 | 2.0 | 10.0 | 0.00 | 0.00 | 0.00 | 45 | 1001.0 |
| 20260506003904 | 58 | 203 | 3.0 | 12.0 | 0.00 | 0.00 | 0.00 | 43 | 1000.8 |
| 20260506003403 | 58 | 193 | 5.0 | 12.0 | 0.00 | 0.00 | 0.00 | 42 | 1000.8 |
| 20260506002404 | 59 | 178 | 4.0 | 12.0 | 0.00 | 0.00 | 0.00 | 41 | 1000.7 |
| 20260506001403 | 59 | 213 | 5.0 | 12.0 | 0.00 | 0.00 | 0.00 | 40 | 1000.5 |
| 20260506000403 | 59 | 189 | 6.0 | 13.0 | 0.00 | 0.00 | 0.00 | 40 | 1000.5 |
| 20260505235404 | 59 | 221 | 6.0 | 12.0 | 0.00 | 0.00 | 0.00 | 44 | 1000.3 |
| 20260505234904 | 59 | 174 | 3.0 | 14.0 | 0.00 | 0.00 | 0.00 | 46 | 1000.4 |
| 20260505233905 | 59 | 193 | 4.0 | 14.0 | 0.00 | 0.00 | 0.00 | 45 | 1000.4 |
| 20260505233405 | 59 | 185 | 5.0 | 16.0 | 0.00 | 0.00 | 0.00 | 45 | 1000.3 |
| 20260505232905 | 59 | 165 | 8.0 | 16.0 | 0.00 | 0.00 | 0.00 | 44 | 1000.3 |
| 20260505232405 | 59 | 189 | 4.0 | 17.0 | 0.00 | 0.00 | 0.00 | 45 | 1000.4 |
| 20260505231905 | 58 | 0 | 6.0 | 17.0 | 0.00 | 0.00 | 0.00 | 44 | 1000.3 |
| 20260505230905 | 58 | 0 | 7.0 | 14.0 | 0.00 | 0.00 | 0.00 | 44 | 1000.2 |
| 20260505225405 | 60 | 159 | 6.0 | 16.0 | 0.00 | 0.00 | 0.00 | 43 | 1000.1 |
| 20260505224404 | 61 | 214 | 7.0 | 16.0 | 0.00 | 0.00 | 0.00 | 42 | 1000.0 |
| 20260505222905 | 60 | 175 | 5.0 | 12.0 | 0.00 | 0.00 | 0.00 | 43 | 999.9 |
| 20260505222404 | 60 | 168 | 6.0 | 12.0 | 0.00 | 0.00 | 0.00 | 43 | 1000.0 |
| 20260505221905 | 60 | 125 | 3.0 | 9.0 | 0.00 | 0.00 | 0.00 | 43 | 1000.0 |
| 20260505220904 | 60 | 214 | 3.0 | 8.0 | 0.00 | 0.00 | 0.00 | 43 | 1000.1 |